DB0RV-13 Weather Reports


Display with metric or nautical units.
time (UTC)temp
F
wind
direction
speed
MPH
gust
MPH
rain 1hr
in
rain 24hr
in
rain mn
in
humidity
%
barometer
mb
20260510054002 51 27 5.0 0.0 0.00 0.00 0.00 76 1010.1
20260510053501 50 51 6.0 0.0 0.00 0.00 0.00 77 1010.1
20260510053002 49 46 7.0 0.0 0.00 0.00 0.00 77 1010.1
20260510052501 49 36 6.0 0.0 0.00 0.00 0.00 77 1010.1
20260510052002 49 44 6.0 0.0 0.00 0.00 0.00 77 1010.3
20260510051501 49 44 4.0 0.0 0.00 0.00 0.00 78 1010.2
20260510051002 49 49 5.0 0.0 0.00 0.00 0.00 78 1010.3
20260510050501 48 59 5.0 0.0 0.00 0.00 0.00 79 1010.4
20260510050002 48 46 4.0 0.0 0.00 0.00 0.00 79 1010.3
20260510045502 48 44 3.0 0.0 0.00 0.00 0.00 79 1010.5
20260510045002 48 43 4.0 0.0 0.00 0.00 0.00 79 1010.5
20260510044502 48 47 4.0 0.0 0.00 0.00 0.00 80 1010.4
20260510044002 47 39 4.0 0.0 0.00 0.00 0.00 80 1010.5
20260510043502 47 35 6.0 0.0 0.00 0.00 0.00 79 1010.4
20260510043001 48 45 5.0 0.0 0.00 0.00 0.00 79 1010.5
20260510042502 48 46 4.0 0.0 0.00 0.00 0.00 78 1010.5
20260510042001 49 43 3.0 0.0 0.00 0.00 0.00 77 1010.5
20260510041502 49 37 4.0 0.0 0.00 0.00 0.00 77 1010.5
20260510041002 49 27 4.0 0.0 0.00 0.00 0.00 78 1010.6
20260510040501 49 39 5.0 0.0 0.00 0.00 0.00 77 1010.6
20260510040002 49 52 3.0 0.0 0.00 0.00 0.00 77 1010.6
20260510035501 49 42 5.0 0.0 0.00 0.00 0.00 77 1010.6
20260510035002 49 29 3.0 0.0 0.00 0.00 0.00 77 1010.7
20260510034501 50 43 5.0 0.0 0.00 0.00 0.00 76 1010.7
20260510034002 50 46 5.0 0.0 0.00 0.00 0.00 76 1010.7
20260510033501 50 34 6.0 0.0 0.00 0.00 0.00 75 1010.7
20260510033002 51 28 4.0 0.0 0.00 0.00 0.00 74 1010.8
20260510032501 51 30 5.0 0.0 0.00 0.00 0.00 74 1011.0
20260510032002 51 25 6.0 0.0 0.00 0.00 0.00 73 1010.9
20260510031502 52 7 4.0 0.0 0.00 0.00 0.00 71 1011.1
20260510031002 52 9 5.0 0.0 0.00 0.00 0.00 72 1011.1
20260510030502 52 18 4.0 0.0 0.00 0.00 0.00 72 1011.2
20260510030002 52 19 5.0 0.0 0.00 0.00 0.00 72 1011.0
20260510025501 52 17 5.0 0.0 0.00 0.00 0.00 72 1011.0
20260510025002 52 15 4.0 0.0 0.00 0.00 0.00 71 1011.1
20260510024502 52 17 5.0 0.0 0.00 0.00 0.00 73 1011.2
20260510024001 51 23 4.0 0.0 0.00 0.00 0.00 73 1011.1
20260510023502 51 22 5.0 0.0 0.00 0.00 0.00 73 1011.1
20260510023002 52 17 6.0 0.0 0.00 0.00 0.00 73 1011.2
20260510022501 52 21 7.0 0.0 0.00 0.00 0.00 73 1011.1
20260510022002 51 18 6.0 0.0 0.00 0.00 0.00 73 1011.2
20260510021502 52 26 5.0 0.0 0.00 0.00 0.00 72 1011.2
20260510021001 52 25 5.0 0.0 0.00 0.00 0.00 71 1011.3
20260510020502 52 12 6.0 0.0 0.00 0.00 0.00 71 1011.3
20260510020002 53 25 3.0 0.0 0.00 0.00 0.00 71 1011.4
20260510015501 53 15 4.0 0.0 0.00 0.00 0.00 69 1011.4
20260510015002 53 20 4.0 0.0 0.00 0.00 0.00 70 1011.5
20260510014502 53 21 4.0 0.0 0.00 0.00 0.00 71 1011.5
20260510014001 53 27 5.0 0.0 0.00 0.00 0.00 70 1011.4
20260510013502 54 22 6.0 0.0 0.00 0.00 0.00 69 1011.4
20260510013001 54 15 3.0 0.0 0.00 0.00 0.00 69 1011.6
20260510012501 53 9 3.0 0.0 0.00 0.00 0.00 70 1011.6
20260510012002 53 17 5.0 0.0 0.00 0.00 0.00 70 1011.4
20260510011501 54 22 6.0 0.0 0.00 0.00 0.00 68 1011.6
20260510011001 54 15 6.0 0.0 0.00 0.00 0.00 69 1011.6
20260510010502 54 8 6.0 0.0 0.00 0.00 0.00 68 1011.5
20260510010002 54 15 6.0 0.0 0.00 0.00 0.00 67 1011.6
20260510005501 55 9 3.0 0.0 0.00 0.00 0.00 67 1011.5
20260510005002 55 10 4.0 0.0 0.00 0.00 0.00 66 1011.4
20260510004502 55 16 4.0 0.0 0.00 0.00 0.00 66 1011.4
20260510004001 55 341 2.0 0.0 0.00 0.00 0.00 66 1011.4
20260510003502 55 4 3.0 0.0 0.00 0.00 0.00 65 1011.4
20260510003003 56 358 3.0 0.0 0.00 0.00 0.00 64 1011.3
20260510002501 56 356 4.0 0.0 0.00 0.00 0.00 64 1011.3
20260510002002 56 21 5.0 0.0 0.00 0.00 0.00 64 1011.4
20260510001502 56 13 4.0 0.0 0.00 0.00 0.00 64 1011.4
20260510001001 56 26 3.0 0.0 0.00 0.00 0.00 64 1011.4
20260510000502 56 17 4.0 0.0 0.00 0.00 0.00 64 1011.5
20260510000002 56 28 5.0 0.0 0.00 0.00 0.00 63 1011.5
20260509235501 57 15 5.0 0.0 0.00 0.00 0.00 62 1011.7
20260509235002 57 16 4.0 0.0 0.00 0.00 0.00 62 1011.7
20260509234502 57 3 2.0 0.0 0.00 0.00 0.00 62 1011.8
20260509234001 57 9 3.0 0.0 0.00 0.00 0.00 62 1011.8
20260509233502 57 28 5.0 0.0 0.00 0.00 0.00 62 1011.9
20260509233002 57 21 5.0 0.0 0.00 0.00 0.00 61 1011.8
20260509232501 57 29 4.0 0.0 0.00 0.00 0.00 61 1011.8
20260509232002 57 25 5.0 0.0 0.00 0.00 0.00 61 1011.9
20260509231502 57 29 6.0 0.0 0.00 0.00 0.00 61 1011.9
20260509231001 58 22 5.0 0.0 0.00 0.00 0.00 60 1012.0
20260509230502 58 6 2.0 0.0 0.00 0.00 0.00 59 1012.1
20260509230002 58 12 2.0 0.0 0.00 0.00 0.00 59 1012.1
20260509225501 58 5 2.0 0.0 0.00 0.00 0.00 59 1012.2
20260509225002 59 350 2.0 0.0 0.00 0.00 0.00 58 1012.3
20260509224502 58 24 4.0 0.0 0.00 0.00 0.00 58 1012.1
20260509224001 59 33 5.0 0.0 0.00 0.00 0.00 58 1012.2
20260509223502 59 15 3.0 0.0 0.00 0.00 0.00 57 1012.3
20260509223002 60 5 3.0 0.0 0.00 0.00 0.00 56 1012.2
20260509222501 59 25 4.0 0.0 0.00 0.00 0.00 56 1012.2
20260509222002 59 42 5.0 0.0 0.00 0.00 0.00 57 1012.1
20260509221502 59 33 5.0 0.0 0.00 0.00 0.00 57 1012.1
20260509221001 59 38 5.0 0.0 0.00 0.00 0.00 57 1012.2
20260509220502 59 26 5.0 0.0 0.00 0.00 0.00 57 1012.2
20260509220002 59 24 5.0 0.0 0.00 0.00 0.00 57 1012.2
20260509215501 59 29 6.0 0.0 0.00 0.00 0.00 56 1012.0
20260509215001 59 24 6.0 0.0 0.00 0.00 0.00 56 1012.1
20260509214502 59 21 7.0 0.0 0.00 0.00 0.00 56 1012.1
20260509214001 60 30 6.0 0.0 0.00 0.00 0.00 56 1012.1
20260509213502 60 27 5.0 0.0 0.00 0.00 0.00 55 1012.1
20260509213002 60 15 5.0 0.0 0.00 0.00 0.00 54 1012.1
20260509212501 61 12 4.0 0.0 0.00 0.00 0.00 54 1012.3
20260509212001 60 14 7.0 0.0 0.00 0.00 0.00 55 1012.2
20260509211502 60 25 6.0 0.0 0.00 0.00 0.00 55 1012.2
20260509211001 60 23 6.0 0.0 0.00 0.00 0.00 54 1012.2
20260509210501 60 35 6.0 0.0 0.00 0.00 0.00 54 1012.2
20260509210002 60 31 5.0 0.0 0.00 0.00 0.00 54 1012.3
20260509205501 61 41 5.0 0.0 0.00 0.00 0.00 53 1012.3
20260509205001 61 24 6.0 0.0 0.00 0.00 0.00 52 1012.4
20260509204502 61 38 5.0 0.0 0.00 0.00 0.00 52 1012.3
20260509204001 61 27 5.0 0.0 0.00 0.00 0.00 52 1012.4
20260509203501 61 42 6.0 0.0 0.00 0.00 0.00 52 1012.3
20260509203002 62 46 6.0 0.0 0.00 0.00 0.00 51 1012.3
20260509202502 62 41 5.0 0.0 0.00 0.00 0.00 51 1012.3
20260509202002 62 28 4.0 0.0 0.00 0.00 0.00 50 1012.4
20260509201502 63 26 4.0 0.0 0.00 0.00 0.00 50 1012.4
20260509201003 64 19 4.0 0.0 0.00 0.00 0.00 48 1012.5
20260509200502 64 13 4.0 0.0 0.00 0.00 0.00 48 1012.5
20260509200003 64 10 2.0 0.0 0.00 0.00 0.00 48 1012.5
20260509195502 64 22 3.0 0.0 0.00 0.00 0.00 48 1012.5
20260509195002 64 30 4.0 0.0 0.00 0.00 0.00 48 1012.5
20260509194502 64 24 5.0 0.0 0.00 0.00 0.00 47 1012.5
20260509194002 65 26 4.0 0.0 0.00 0.00 0.00 46 1012.4
20260509193502 65 23 4.0 0.0 0.00 0.00 0.00 46 1012.5
20260509193003 64 36 4.0 0.0 0.00 0.00 0.00 46 1012.5
20260509192502 65 42 4.0 0.0 0.00 0.00 0.00 46 1012.5
20260509192003 65 45 5.0 0.0 0.00 0.00 0.00 46 1012.4
20260509191502 65 47 3.0 0.0 0.00 0.00 0.00 46 1012.4
20260509191002 65 43 4.0 0.0 0.00 0.00 0.00 45 1012.4
20260509190502 65 46 4.0 0.0 0.00 0.00 0.00 45 1012.5
20260509190002 65 44 2.0 0.0 0.00 0.00 0.00 45 1012.4
20260509185502 66 25 4.0 0.0 0.00 0.00 0.00 44 1012.4
20260509185001 66 25 4.0 0.0 0.00 0.00 0.00 44 1012.3
20260509184502 66 31 4.0 0.0 0.00 0.00 0.00 44 1012.2
20260509184003 66 37 4.0 0.0 0.00 0.00 0.00 43 1012.3
20260509183502 67 32 3.0 0.0 0.00 0.00 0.00 42 1012.3
20260509183004 67 52 2.0 0.0 0.00 0.00 0.00 42 1012.2
20260509182502 67 61 3.0 0.0 0.00 0.00 0.00 41 1012.1
20260509182002 67 46 5.0 0.0 0.00 0.00 0.00 40 1012.1
20260509181501 68 42 4.0 0.0 0.00 0.00 0.00 39 1012.2
20260509181002 68 36 6.0 0.0 0.00 0.00 0.00 38 1012.2
20260509180501 69 49 6.0 0.0 0.00 0.00 0.00 37 1012.2
20260509180002 69 47 4.0 0.0 0.00 0.00 0.00 36 1012.2
20260509175501 70 46 4.0 0.0 0.00 0.00 0.00 35 1012.2
20260509175002 70 48 5.0 0.0 0.00 0.00 0.00 35 1012.2
20260509174502 70 42 5.0 0.0 0.00 0.00 0.00 34 1012.2
20260509174001 70 41 4.0 0.0 0.00 0.00 0.00 34 1012.3
20260509173502 70 36 5.0 0.0 0.00 0.00 0.00 34 1012.2
20260509173002 70 36 5.0 0.0 0.00 0.00 0.00 34 1012.3
20260509172502 70 45 4.0 0.0 0.00 0.00 0.00 34 1012.1
20260509172001 70 38 5.0 0.0 0.00 0.00 0.00 35 1012.1
20260509171502 71 22 6.0 0.0 0.00 0.00 0.00 34 1012.1
20260509171002 71 1 3.0 0.0 0.00 0.00 0.00 33 1012.1
20260509170502 71 38 4.0 0.0 0.00 0.00 0.00 31 1012.2
20260509170002 71 42 3.0 0.0 0.00 0.00 0.00 30 1012.2
20260509165501 71 22 5.0 0.0 0.00 0.00 0.00 31 1012.3
20260509165002 71 88 3.0 0.0 0.00 0.00 0.00 31 1012.2
20260509164501 71 39 2.0 0.0 0.00 0.00 0.00 31 1012.2
20260509164002 71 45 3.0 0.0 0.00 0.00 0.00 31 1012.1
20260509163501 71 29 4.0 0.0 0.00 0.00 0.00 33 1012.4
20260509163002 72 341 5.0 0.0 0.00 0.00 0.00 32 1012.5
20260509162501 72 274 1.0 0.0 0.00 0.00 0.00 32 1012.5
20260509162002 71 349 3.0 0.0 0.00 0.00 0.00 32 1012.5
20260509161501 70 31 5.0 0.0 0.00 0.00 0.00 32 1012.4
20260509161002 71 32 5.0 0.0 0.00 0.00 0.00 33 1012.4
20260509160501 71 46 7.0 0.0 0.00 0.00 0.00 33 1012.4
20260509160001 71 72 6.0 0.0 0.00 0.00 0.00 34 1012.4
20260509155502 72 33 8.0 0.0 0.00 0.00 0.00 34 1012.5
20260509155002 71 286 2.0 0.0 0.00 0.00 0.00 34 1012.8
20260509154502 72 6 3.0 0.0 0.00 0.00 0.00 34 1012.8
20260509154001 71 343 2.0 0.0 0.00 0.00 0.00 33 1012.8
20260509153502 73 13 2.0 0.0 0.00 0.00 0.00 34 1013.0
20260509153004 72 20 2.0 0.0 0.00 0.00 0.00 33 1013.0
20260509152502 72 309 3.0 0.0 0.00 0.00 0.00 33 1013.1
20260509152001 72 207 2.0 0.0 0.00 0.00 0.00 34 1013.2
20260509151501 72 294 3.0 0.0 0.00 0.00 0.00 33 1013.2
20260509151002 72 195 3.0 0.0 0.00 0.00 0.00 34 1013.3
20260509150501 72 54 2.0 0.0 0.00 0.00 0.00 33 1013.2
20260509150002 72 80 2.0 0.0 0.00 0.00 0.00 34 1013.2
20260509145501 71 104 3.0 0.0 0.00 0.00 0.00 35 1013.3
20260509145002 71 228 4.0 0.0 0.00 0.00 0.00 36 1013.4
20260509144501 71 186 3.0 0.0 0.00 0.00 0.00 36 1013.3
20260509144001 71 189 3.0 0.0 0.00 0.00 0.00 35 1013.3
20260509143501 70 157 2.0 0.0 0.00 0.00 0.00 35 1013.4
20260509143001 70 189 4.0 0.0 0.00 0.00 0.00 37 1013.4
20260509142502 70 165 4.0 0.0 0.00 0.00 0.00 36 1013.5
20260509142001 70 52 2.0 0.0 0.00 0.00 0.00 36 1013.5
20260509141502 71 105 3.0 0.0 0.00 0.00 0.00 37 1013.5
20260509141001 70 300 3.0 0.0 0.00 0.00 0.00 37 1013.7
20260509140502 70 122 6.0 0.0 0.00 0.00 0.00 37 1013.7
20260509140002 69 97 2.0 0.0 0.00 0.00 0.00 36 1013.8
20260509135502 70 71 4.0 0.0 0.00 0.00 0.00 37 1013.7
20260509135001 69 153 6.0 0.0 0.00 0.00 0.00 38 1013.9
20260509134501 71 94 4.0 0.0 0.00 0.00 0.00 37 1013.8
20260509134002 69 113 5.0 0.0 0.00 0.00 0.00 39 1013.9
20260509133502 69 248 6.0 0.0 0.00 0.00 0.00 40 1014.0
20260509133002 69 118 4.0 0.0 0.00 0.00 0.00 38 1014.1
20260509132502 70 100 3.0 0.0 0.00 0.00 0.00 40 1014.2
20260509132002 69 145 4.0 0.0 0.00 0.00 0.00 39 1014.2
20260509131501 69 101 4.0 0.0 0.00 0.00 0.00 39 1014.2
20260509131002 69 109 9.0 0.0 0.00 0.00 0.00 40 1014.3
20260509130501 69 134 3.0 0.0 0.00 0.00 0.00 42 1014.3
20260509130003 69 185 5.0 0.0 0.00 0.00 0.00 42 1014.5
20260509125502 69 260 2.0 0.0 0.00 0.00 0.00 42 1014.5
20260509125002 68 109 3.0 0.0 0.00 0.00 0.00 42 1014.5
20260509124502 69 119 3.0 0.0 0.00 0.00 0.00 42 1014.5
20260509124001 69 170 4.0 0.0 0.00 0.00 0.00 42 1014.7
20260509123502 69 161 7.0 0.0 0.00 0.00 0.00 40 1014.6
20260509123001 68 91 5.0 0.0 0.00 0.00 0.00 41 1014.7
20260509122501 67 155 5.0 0.0 0.00 0.00 0.00 41 1014.8
20260509122002 67 139 5.0 0.0 0.00 0.00 0.00 43 1014.8
20260509121501 68 192 6.0 0.0 0.00 0.00 0.00 46 1014.8
20260509121002 69 201 2.0 0.0 0.00 0.00 0.00 43 1015.0
20260509120501 69 142 6.0 0.0 0.00 0.00 0.00 40 1015.0
20260509120002 68 117 4.0 0.0 0.00 0.00 0.00 41 1015.0
20260509115501 68 107 5.0 0.0 0.00 0.00 0.00 43 1015.0
20260509115002 67 196 1.0 0.0 0.00 0.00 0.00 44 1015.2
20260509114501 67 225 5.0 0.0 0.00 0.00 0.00 45 1015.2
20260509114002 68 200 6.0 0.0 0.00 0.00 0.00 44 1015.2
20260509113501 67 196 1.0 0.0 0.00 0.00 0.00 43 1015.3
20260509113002 69 117 4.0 0.0 0.00 0.00 0.00 42 1015.4
20260509112503 68 284 2.0 0.0 0.00 0.00 0.00 46 1015.4
20260509112001 67 190 4.0 0.0 0.00 0.00 0.00 48 1015.4
20260509111503 68 181 4.0 0.0 0.00 0.00 0.00 49 1015.5
20260509111001 68 293 3.0 0.0 0.00 0.00 0.00 46 1015.6
20260509110502 66 114 2.0 0.0 0.00 0.00 0.00 46 1015.6
20260509110002 66 259 2.0 0.0 0.00 0.00 0.00 48 1015.7
20260509105502 66 123 0.0 0.0 0.00 0.00 0.00 47 1015.6
20260509105001 66 211 3.0 0.0 0.00 0.00 0.00 49 1015.8
20260509104502 66 216 7.0 0.0 0.00 0.00 0.00 49 1015.9
20260509104001 66 286 0.0 0.0 0.00 0.00 0.00 47 1015.9
20260509103502 67 221 4.0 0.0 0.00 0.00 0.00 49 1016.0
20260509103001 66 0 0.0 0.0 0.00 0.00 0.00 50 1016.0
20260509102501 64 350 2.0 0.0 0.00 0.00 0.00 51 1016.0
20260509102001 65 26 4.0 0.0 0.00 0.00 0.00 49 1016.0
20260509101502 66 341 2.0 0.0 0.00 0.00 0.00 49 1016.1
20260509101002 65 154 0.0 0.0 0.00 0.00 0.00 52 1016.1
20260509100501 64 204 2.0 0.0 0.00 0.00 0.00 52 1016.1
20260509100002 65 296 3.0 0.0 0.00 0.00 0.00 51 1016.2
20260509095501 65 288 1.0 0.0 0.00 0.00 0.00 55 1016.2
20260509095002 64 294 1.0 0.0 0.00 0.00 0.00 56 1016.2
20260509094501 64 331 2.0 0.0 0.00 0.00 0.00 54 1016.2
20260509094001 63 8 2.0 0.0 0.00 0.00 0.00 56 1016.1
20260509093501 62 334 2.0 0.0 0.00 0.00 0.00 56 1016.2
20260509093002 64 340 3.0 0.0 0.00 0.00 0.00 55 1016.2
20260509092502 65 269 6.0 0.0 0.00 0.00 0.00 54 1016.3
20260509092001 62 0 0.0 0.0 0.00 0.00 0.00 57 1016.3
20260509091502 63 245 2.0 0.0 0.00 0.00 0.00 57 1016.3
20260509091001 63 239 1.0 0.0 0.00 0.00 0.00 60 1016.4
20260509090502 62 0 0.0 0.0 0.00 0.00 0.00 59 1016.5
20260509090001 63 239 3.0 0.0 0.00 0.00 0.00 60 1016.4
20260509085502 62 242 4.0 0.0 0.00 0.00 0.00 60 1016.4
20260509085001 61 228 3.0 0.0 0.00 0.00 0.00 60 1016.5
20260509084501 61 222 4.0 0.0 0.00 0.00 0.00 62 1016.4
20260509084002 61 237 6.0 0.0 0.00 0.00 0.00 61 1016.4
20260509083501 60 324 4.0 0.0 0.00 0.00 0.00 62 1016.6
20260509083002 60 277 4.0 0.0 0.00 0.00 0.00 62 1016.6
20260509082501 60 183 3.0 0.0 0.00 0.00 0.00 64 1016.6
20260509082002 60 206 8.0 0.0 0.00 0.00 0.00 65 1016.6
20260509081501 59 162 4.0 0.0 0.00 0.00 0.00 63 1016.6
20260509081002 60 283 2.0 0.0 0.00 0.00 0.00 63 1016.6
20260509080501 59 230 4.0 0.0 0.00 0.00 0.00 66 1016.6
20260509080002 59 239 2.0 0.0 0.00 0.00 0.00 64 1016.5
20260509075502 59 0 0.0 0.0 0.00 0.00 0.00 64 1016.6
20260509075002 58 181 4.0 0.0 0.00 0.00 0.00 64 1016.5
20260509074502 58 164 4.0 0.0 0.00 0.00 0.00 66 1016.4
20260509074001 59 164 1.0 0.0 0.00 0.00 0.00 64 1016.5
20260509073502 60 185 2.0 0.0 0.00 0.00 0.00 62 1016.5
20260509073001 58 243 0.0 0.0 0.00 0.00 0.00 63 1016.5
20260509072502 57 304 0.0 0.0 0.00 0.00 0.00 63 1016.5
20260509072001 57 159 1.0 0.0 0.00 0.00 0.00 66 1016.6
20260509071502 56 332 1.0 0.0 0.00 0.00 0.00 67 1016.6
20260509071002 56 89 2.0 0.0 0.00 0.00 0.00 67 1016.3
20260509070502 55 82 1.0 0.0 0.00 0.00 0.00 68 1016.3
20260509070002 55 32 5.0 0.0 0.00 0.00 0.00 69 1016.3
20260509065501 55 40 3.0 0.0 0.00 0.00 0.00 69 1016.3
20260509065002 54 82 2.0 0.0 0.00 0.00 0.00 69 1016.3
20260509064501 53 84 4.0 0.0 0.00 0.00 0.00 70 1016.3
20260509064017 54 75 3.0 0.0 0.00 0.00 0.00 71 1016.3
20260509063502 53 60 2.0 0.0 0.00 0.00 0.00 70 1016.3
20260509063002 53 42 3.0 0.0 0.00 0.00 0.00 70 1016.4
20260509062501 53 42 3.0 0.0 0.00 0.00 0.00 72 1016.4
20260509062002 53 30 3.0 0.0 0.00 0.00 0.00 72 1016.3
20260509061502 52 23 2.0 0.0 0.00 0.00 0.00 73 1016.2
20260509061002 51 40 4.0 0.0 0.00 0.00 0.00 73 1016.3
20260509060502 51 70 2.0 0.0 0.00 0.00 0.00 74 1016.3
20260509060002 51 44 2.0 0.0 0.00 0.00 0.00 75 1016.3
20260509055501 51 58 2.0 0.0 0.00 0.00 0.00 76 1016.4
20260509055002 51 34 1.0 0.0 0.00 0.00 0.00 78 1016.3
20260509054501 50 74 2.0 0.0 0.00 0.00 0.00 77 1016.2